OBJECT CJ, 66746

Orbit data source: Space-Track

You're viewing an Uncataloged Satellite

Recently launched and/or uncataloged satellites may have evolving metadata. Metadata may include but not limited to: Owner, Maufacturer, Bus, Motor, and Mission.

OBJECT CJ, 66746 is a satellite in SSO that was launched on Fri, 28 Nov 2025 UTC via an FALCON 9 launch vehicle from the Air Force Western Test Range (AFWTR). Unknown objects in Earth's orbit typically refer to objects detected orbiting the Earth but have not yet been identified or cataloged. These objects could be anything from previously untracked satellites, spent rocket stages, debris from satellite collisions, or even natural meteoroids temporarily captured by Earth's gravity.

Loading next visibility...
Identifier
66746, 2025-276CJ
Orbit
SSO
Country
Flag of TBDTBD
Related business
None
Manufacturer
Unknown
Mission
Operational spacecraft
Bus & Motor
Unknown
Mass
Unknown
Launch date (UTC)
2025-11-28 (2 months ago)
Launch vehicle
FALCON 9
Launch site
Air Force Western Test Range (AFWTR)
Object type
Unknown
Shape & HBR
Unknown
Radar Cross Section
RCS unknown

Expand to show TLE details & history
Last TLE update: 4 hours ago

TLE from 4 hours ago
0 OBJECT CJ
1 66746U 25276CJ  26035.15858353  .00020438  00000-0  94510-3 0  9994
2 66746  97.3766 110.8276 0014074  65.4993 294.7708 15.20095982 10230
Epoch: 2026-02-04T03:48Z
TLE epoch observation values (Epoch: 2026-02-04T03:48:21.616Z)
Latitude
-0.00001°
Longitude
-80.59165°
Altitude
504.593 km
Speed
7.614 km/s
True Right ascension
07h 23m 18s
True Declination
0° 00' 00"
Sunlit
Object was in full shadow at epoch
Visualization orbit readout
Latitude
Unknown
Longitude
Unknown
Altitude
Unknown
Speed
Unknown
Apparent Right ascension
Unknown
Apparent Declination
Unknown
Sunlit
N/A
Visualization observer readout
Local Sidereal Time
10:14:00
Azimuth
Unknown
Elevation
Unknown
Doppler factor
Unknown
Orbital elements
Apogee altitude
512.199 km
Perigee altitude
492.831 km
Semi-major axis
6,880.652 km
Eccentricity
0.00141
Inclination
97.3766°
RAAN
110.8276°
Arg. of periapsis
65.4993°
True anomaly
294.62425°
Mean anomaly
294.7708°
Eccentric anomaly
294.69754°
Mean motion
3.80276 °/min
Orbital period
94.67 mins
BSTAR
0.0009451
Loading maneuver chart data...
Computing Atmospheric mass density...
Loading historical data...
Loading historical data...
Loading historical data...
Loading historical data...
Loading historical data...
Loading historical data...
Loading historical data...

Documentation

Showing up to 5 results
|